CYGP

Gaspé (Michel-Pouliot) Airport

ICAO Code CYGP
IATA Code YGP
Name Gaspé (Michel-Pouliot) Airport
Location Gaspé, Quebec, CA
Elevation 112 Feet / 34.1 Meters
Latitude 48.77500000
Longitude -64.48166667
METAR CYGP 122100Z 12009G15KT 070V150 7SM BKN009 BKN030 09/07 A2985 RMK SC7SC1 SC TR MISTY SLP112
Extra information Display Charts
Runway Length Width Surface Elevation
10 5488 ft 150 ft ASP 112 ft
28 5488 ft 150 ft ASP 89 ft

Mandatory Routes

Gaspé (Michel-Pouliot) Airport

Direction Destination Level Remark Type Route
ARR FR W H&L RNAV FLEUR VODIX OMPOG YGP
DEP TO W H RNAV MIVAX